Greenville Junction, ME

4:49 PM EST on February 14, 2016 (GMT -0500)
Greenville

Weather History for KGNR - January, 2013

Change the Weather History Date:

Thursday, January 17, 2013

  Actual Average (KMLT) Record (KMLT)
Temperature  
Mean Temperature 13 °F 13 °F  
Max Temperature 28 °F 23 °F 52 °F (1995)
Min Temperature -2 °F 3 °F -32 °F (1907)
Degree Days  
Heating Degree Days 52 52  
Month to date heating degree days 858  
Since 1 July heating degree days 4023  
Cooling Degree Days 0 0  
Month to date cooling degree days 0  
Year to date cooling degree days 0  
Moisture  
Dew Point 6 °F    
Average Humidity 68    
Maximum Humidity 96    
Minimum Humidity 39    
Precipitation  
Precipitation 0.03 in 0.08 in 1.08 in (1959)
Month to date precipitation 1.78  
Year to date precipitation 1.78  
Sea Level Pressure  
Sea Level Pressure 29.86 in    
Wind  
Wind Speed 3 mph (NW)    
Max Wind Speed 14 mph    
Max Gust Speed 29 mph    
T = Trace of Precipitation, MM = Missing Value Source: NWS Daily Summary

Daily Weather History Graph

Daily Weather History Graph

Search for Another Location

Airport or City:

Trip Planner

Search our weather history database for the weather conditions in past years. The results will help you decide how hot, cold, wet, or windy it might be!

Date:

Astronomy

Jan. 17, 2013 Rise Set
Actual Time 7:13 AM EST 4:24 PM EST
Civil Twilight 6:40 AM EST 4:57 PM EST
Nautical Twilight 6:03 AM EST 5:33 PM EST
Astronomical Twilight 5:28 AM EST 6:09 PM EST
Moon 9:56 AM EST (1/17) 11:35 PM EST (1/17)
Length of Visible Light 10h 17m
Length of Day
9h 11m
Waxing Crescent, 37% of the Moon is Illuminated
Jan 17
Waxing Crescent
Jan 18
First Quarter
Jan 26
Full
Feb 3
Last Quarter
Feb 10
New

Hourly Weather History & Observations

Time (EST) Temp. Windchill Dew Point Humidity Pressure Visibility Wind Dir Wind Speed Gust Speed Precip Events Conditions
12:56 AM 21.9 °F - 19.0 °F 89% 29.70 in - Calm Calm - N/A   Unknown
1:56 AM 25.0 °F - 21.9 °F 88% 29.71 in - Calm Calm - N/A   Unknown
2:56 AM 24.1 °F - 23.0 °F 96% 29.70 in - Calm Calm - N/A   Unknown
3:56 AM 23.0 °F - 19.9 °F 88% 29.68 in - Calm Calm - N/A   Unknown
4:56 AM 24.1 °F - 21.0 °F 88% 29.67 in - Calm Calm - N/A   Unknown
5:56 AM 25.0 °F - 21.9 °F 88% 29.68 in - Calm Calm - N/A   Unknown
6:56 AM 25.0 °F 20.7 °F 21.9 °F 88% 29.70 in - South 3.5 mph - N/A   Unknown
7:56 AM 25.0 °F - 21.9 °F 88% 29.71 in - Calm Calm - N/A   Unknown
8:56 AM 26.1 °F - 24.1 °F 92% 29.73 in - Calm Calm - N/A   Unknown
9:56 AM 28.0 °F - 26.1 °F 92% 29.73 in - Calm Calm - N/A   Unknown
10:56 AM 27.0 °F 15.6 °F 21.9 °F 81% 29.77 in - NW 13.8 mph 21.9 mph 0.03 in   Unknown
11:56 AM 25.0 °F 18.1 °F 15.1 °F 66% 29.81 in - Variable 5.8 mph 27.6 mph N/A   Unknown
12:56 PM 23.0 °F 15.8 °F 8.1 °F 53% 29.84 in - Variable 5.8 mph 17.3 mph N/A   Unknown
1:56 PM 19.0 °F 9.0 °F 5.0 °F 54% 29.88 in - NW 8.1 mph 18.4 mph N/A   Unknown
2:56 PM 12.9 °F -1.6 °F -8.0 °F 39% 29.94 in - NW 12.7 mph 28.8 mph N/A   Unknown
3:56 PM 9.0 °F -4.2 °F -8.0 °F 46% 29.97 in - WNW 9.2 mph 21.9 mph N/A   Unknown
4:56 PM 5.0 °F -10.0 °F -15.0 °F 39% 30.02 in - NW 10.4 mph 24.2 mph N/A   Unknown
5:56 PM 1.9 °F -9.2 °F -16.1 °F 43% 30.06 in - Variable 5.8 mph - N/A   Unknown
6:56 PM 1.0 °F -12.9 °F -15.0 °F 47% 30.09 in - NW 8.1 mph 17.3 mph N/A   Unknown
7:56 PM -0.0 °F -16.3 °F -14.1 °F 52% 30.07 in - NW 10.4 mph 23.0 mph N/A   Unknown
8:56 PM -0.0 °F -15.3 °F -13.0 °F 54% 30.09 in - NW 9.2 mph 19.6 mph N/A   Unknown
9:56 PM -0.9 °F -19.9 °F -14.1 °F 54% 30.05 in - NW 13.8 mph 23.0 mph N/A   Unknown
10:56 PM -2.0 °F -18.7 °F -16.1 °F 51% 30.06 in - NW 10.4 mph - N/A   Unknown
11:56 PM -2.9 °F -15.0 °F -16.1 °F 54% 30.08 in - North 5.8 mph - N/A   Unknown